CW0476 Weather Reports


time (UTC)temp
C
wind
direction
speed
KPH
gust
KPH
rain 1hr
cm
rain 24hr
cm
rain mn
cm
humidity
%
barometer
mb
20260903001019 28 225 0.0 4.8 0.00 0.00 0.00 73 1014.7
20260903000021 29 225 0.0 4.8 0.00 0.00 0.00 71 1014.8
20260902235011 29 203 3.2 4.8 0.00 0.00 0.00 70 1014.8
20260902234012 30 225 1.6 4.8 0.00 0.00 0.00 68 1014.7
20260902233013 30 225 3.2 9.7 0.00 0.00 0.00 67 1014.9
20260902232013 31 225 4.8 9.7 0.00 0.00 0.00 66 1014.6
20260902231016 31 248 3.2 9.7 0.00 0.00 0.00 65 1014.8
20260902222019 33 225 3.2 12.9 0.00 0.00 0.00 57 1014.8
20260902221019 33 225 4.8 14.5 0.00 0.00 0.00 55 1014.8
20260902220020 34 225 8.0 14.5 0.00 0.00 0.00 53 1014.9
20260902215021 35 248 4.8 20.9 0.00 0.00 0.00 53 1014.8
20260902214018 35 248 4.8 14.5 0.00 0.00 0.00 52 1014.8
20260902212011 36 248 4.8 16.1 0.00 0.00 0.00 50 1014.9
20260902205012 35 225 8.0 16.1 0.00 0.00 0.00 51 1015.1
20260902204011 36 248 11.3 19.3 0.00 0.00 0.00 47 1015.2
20260902203013 36 248 3.2 16.1 0.00 0.00 0.00 48 1015.3
20260902193019 36 248 4.8 19.3 0.00 0.00 0.00 47 1016.0
20260902192021 35 248 3.2 20.9 0.00 0.00 0.00 51 1016.0
20260902190020 36 203 4.8 19.3 0.00 0.00 0.00 51 1016.0
20260902185012 35 248 3.2 16.1 0.00 0.00 0.00 55 1016.1
20260902184015 36 248 4.8 20.9 0.00 0.00 0.00 50 1016.1
20260902180018 38 225 8.0 14.5 0.00 0.00 0.00 46 1016.6
20260902175020 38 225 3.2 14.5 0.00 0.00 0.00 48 1016.6
20260902174010 38 248 4.8 19.3 0.00 0.00 0.00 45 1016.8
20260902171013 39 248 3.2 11.3 0.00 0.00 0.00 45 1017.2
20260902163014 36 225 4.8 16.1 0.00 0.00 0.00 52 1017.4
20260902162014 36 248 4.8 16.1 0.00 0.00 0.00 53 1017.3
20260902161016 36 270 1.6 8.0 0.00 0.00 0.00 58 1017.4
20260902155018 34 248 0.0 9.7 0.00 0.00 0.00 59 1017.4
20260902153016 35 225 1.6 8.0 0.00 0.00 0.00 55 1017.5
20260902152017 34 270 0.0 9.7 0.00 0.00 0.00 63 1017.3
20260902150018 33 270 1.6 4.8 0.00 0.00 0.00 64 1017.3
20260902145020 33 248 1.6 11.3 0.00 0.00 0.00 60 1017.5
20260902144020 33 225 3.2 4.8 0.00 0.00 0.00 59 1017.5
20260902140013 30 225 3.2 9.7 0.00 0.00 0.00 70 1017.5
20260902135043 29 225 1.6 9.7 0.00 0.00 0.00 71 1017.5
20260902134016 28 225 4.8 9.7 0.00 0.00 0.00 72 1017.6
20260902124019 26 225 0.0 3.2 0.00 0.00 0.00 84 1017.4
20260902123020 25 135 1.6 3.2 0.00 0.00 0.00 87 1017.5
20260902121019 23 158 0.0 0.0 0.00 0.00 0.00 98 1017.3
20260902112013 21 158 0.0 0.0 0.00 0.00 0.00 100 1016.9
20260902095019 21 225 0.0 0.0 0.00 0.00 0.00 100 1016.5
20260902094010 21 225 0.0 0.0 0.00 0.00 0.00 100 1016.5
20260902092014 21 225 0.0 0.0 0.00 0.00 0.00 100 1016.5
20260902090014 22 225 0.0 0.0 0.00 0.00 0.00 100 1016.4
20260902084010 22 225 0.0 0.0 0.00 0.00 0.00 95 1016.3
20260902082017 23 225 0.0 0.0 0.00 0.00 0.00 93 1016.3
20260902080018 23 225 0.0 0.0 0.00 0.00 0.00 92 1016.3
20260902075021 23 225 0.0 0.0 0.00 0.00 0.00 91 1016.3
20260902065016 24 225 1.6 4.8 0.00 0.00 0.00 88 1016.3
20260902063015 24 248 0.0 4.8 0.00 0.00 0.00 88 1016.5
20260902061014 25 225 1.6 4.8 0.00 0.00 0.00 88 1016.4
20260902052011 25 225 3.2 4.8 0.00 0.00 0.00 85 1016.2
20260902041016 25 225 1.6 8.0 0.00 0.00 0.00 85 1015.9
20260902035020 25 225 3.2 4.8 0.00 0.00 0.00 85 1016.0
20260902034019 25 225 1.6 4.8 0.00 0.00 0.00 84 1016.0
20260902025010 26 225 0.0 0.0 0.00 0.00 0.00 82 1016.1
20260902024014 26 225 0.0 1.6 0.00 0.00 0.00 81 1016.2
20260902021012 26 203 0.0 0.0 0.00 0.00 0.00 81 1016.0
20260902015011 26 203 0.0 0.0 0.00 0.00 0.00 81 1016.0